Weather History for Sisseton, SD

Change the Weather History Date:

Monday, June 17, 2013

  Actual Average Record
Temperature  
Mean Temperature 69 °F 66 °F  
Max Temperature 79 °F 78 °F 101 °F (1933)
Min Temperature 58 °F 55 °F 40 °F (1999)
Degree Days  
Heating Degree Days 0 2  
Month to date heating degree days 69 50  
Since 1 June heating degree days 69 50  
Since 1 July heating degree days 9142 8271  
Cooling Degree Days 4 3  
Month to date cooling degree days 27 40  
Year to date cooling degree days 52 63  
Since 1 June cooling degree days 27 40  
Growing Degree Days 18 (Base 50)    
Moisture  
Dew Point 55 °F    
Average Humidity 63    
Maximum Humidity 84    
Minimum Humidity 42    
Precipitation  
Precipitation 0.22 in 0.13 in 1.72 in (1959)
Month to date precipitation 1.70 2.23  
Year to date precipitation 11.04 9.21  
Sea Level Pressure  
Sea Level Pressure 29.94 in    
Wind  
Wind Speed 10 mph (NNW)    
Max Wind Speed 21 mph    
Max Gust Speed 26 mph    
T = Trace of Precipitation, MM = Missing Value Source: NWS Daily Summary

Daily Weather History Graph

Daily Weather History Graph

Search for Another Location

Airport:

Trip Planner

Search our weather history database for the weather conditions in past years. The results will help you decide how hot, cold, wet, or windy it might be!

Date:

Astronomy

Jun. 17, 2013 Rise Set
Actual Time 5:37 AM CDT 9:20 PM CDT
Civil Twilight 4:59 AM CDT 9:58 PM CDT
Nautical Twilight 4:08 AM CDT 10:49 PM CDT
Astronomical Twilight 2:58 AM CDT 11:59 PM CDT
Moon 2:44 PM CDT (6/17) 1:31 AM CDT (6/17)
Length of Visible Light 16h 58m
Length of Day
15h 42m
First Quarter, 60% of the Moon is Illuminated
Jun 17
First Quarter
Jun 23
Full
Jun 29
Last Quarter
Jul 8
New
Jul 15
First Quarter

Hourly Weather History & Observations

Time (CDT) Temp. Dew Point Humidity Pressure Visibility Wind Dir Wind Speed Gust Speed Precip Events Conditions
12:56 AM 60.1 °F 53.1 °F 78% 29.88 in - North 6.9 mph - N/A   Unknown
1:56 AM 59.0 °F 52.0 °F 78% 29.88 in - WSW 3.5 mph - N/A   Unknown
2:56 AM 57.9 °F 52.0 °F 81% 29.89 in - WSW 4.6 mph - N/A   Unknown
3:56 AM 59.0 °F 52.0 °F 78% 29.91 in - West 8.1 mph - N/A   Unknown
4:56 AM 61.0 °F 52.0 °F 72% 29.90 in - WNW 9.2 mph - N/A   Unknown
5:56 AM 59.0 °F 52.0 °F 78% 29.91 in - WNW 6.9 mph - N/A   Unknown
6:56 AM 62.1 °F 54.0 °F 75% 29.91 in - WNW 8.1 mph - N/A   Unknown
7:56 AM 64.9 °F 55.0 °F 70% 29.92 in - NW 12.7 mph - N/A   Unknown
8:56 AM 68.0 °F 57.0 °F 68% 29.93 in - NNW 12.7 mph - N/A   Unknown
9:56 AM 70.0 °F 57.9 °F 65% 29.94 in - NNW 15.0 mph - N/A   Unknown
10:56 AM 73.0 °F 57.9 °F 59% 29.95 in - North - - N/A   Unknown
11:56 AM 73.0 °F 57.0 °F 57% 29.96 in - NNW 19.6 mph 23.0 mph N/A   Unknown
12:56 PM 75.0 °F 55.9 °F 51% 29.96 in - North 13.8 mph - N/A   Unknown
1:56 PM 75.0 °F 55.0 °F 50% 29.96 in - NNW 13.8 mph 19.6 mph N/A   Unknown
2:56 PM 77.0 °F 54.0 °F 45% 29.96 in - North 16.1 mph 25.3 mph N/A   Unknown
3:56 PM 78.1 °F 54.0 °F 43% 29.94 in - North 12.7 mph 21.9 mph N/A   Unknown
4:56 PM 77.0 °F 53.1 °F 43% 29.94 in - North 13.8 mph 21.9 mph N/A   Unknown
5:56 PM 75.9 °F 51.1 °F 42% 29.94 in - North 10.4 mph - N/A   Unknown
6:56 PM 75.0 °F 52.0 °F 44% 29.93 in - North 12.7 mph - N/A   Unknown
7:56 PM 73.0 °F 55.0 °F 53% 29.94 in - NE 11.5 mph - N/A   Unknown
8:56 PM 66.9 °F 59.0 °F 76% 29.95 in - NE 10.4 mph - 0.02 in   Unknown
9:56 PM 64.9 °F 55.9 °F 73% 29.97 in - South 4.6 mph - 0.20 in   Unknown
10:56 PM 63.0 °F 57.9 °F 84% 29.99 in - NW 4.6 mph - N/A   Unknown
11:56 PM 62.1 °F 57.9 °F 86% 29.99 in - NNW 5.8 mph - N/A   Unknown